AEE167 LGAV-LGIO

Flight info

Callsign AEE167
Flight time 0h 34m
Altitude 24000
Route KOR L53 GARTA L611 IBTIN
Aircraft A320/M-SDE3FGHIRWY/LB1

Departure

Time 2026-04-14 17:05
Airport Athens Eleftherios Venizelos International Airport (LGAV)

Arrival

Time 2026-04-14 17:39
Airport Ioannina King Pyrrhus National Airport (LGIO)
Time Latitude Longitude Altitude Speed Heading
2026-04-14 16:36 37.93747 23.94975 300 ft 0 kts 306°
2026-04-14 16:52 37.93744 23.94981 301 ft 3 kts 306°
2026-04-14 16:52 37.93733 23.94999 301 ft 3 kts 306°
2026-04-14 16:52 37.93723 23.95017 300 ft 3 kts 306°
2026-04-14 16:53 37.93713 23.95034 300 ft 2 kts 325°
2026-04-14 16:53 37.93701 23.95049 304 ft 2 kts 340°
2026-04-14 16:53 37.93684 23.95049 302 ft 2 kts 51°
2026-04-14 16:53 37.93678 23.95037 300 ft 0 kts 39°
2026-04-14 16:56 37.93679 23.95038 300 ft 1 kts 39°
2026-04-14 16:56 37.93684 23.95043 303 ft 1 kts 38°
2026-04-14 16:56 37.93685 23.95044 303 ft 1 kts 38°
2026-04-14 16:56 37.93702 23.95061 302 ft 5 kts 37°
2026-04-14 16:57 37.93715 23.95114 300 ft 10 kts 119°
2026-04-14 16:57 37.93669 23.95193 299 ft 13 kts 126°
2026-04-14 16:57 37.93667 23.95296 298 ft 15 kts 39°
2026-04-14 16:57 37.93756 23.95380 296 ft 17 kts 36°
2026-04-14 16:58 37.93860 23.95478 296 ft 20 kts 37°
2026-04-14 16:58 37.93934 23.95550 300 ft 21 kts 36°
2026-04-14 16:58 37.94052 23.95662 298 ft 22 kts 37°
2026-04-14 16:58 37.94169 23.95774 299 ft 19 kts 36°
2026-04-14 16:59 37.94280 23.95880 300 ft 18 kts 37°
2026-04-14 16:59 37.94388 23.95981 298 ft 20 kts 37°
2026-04-14 16:59 37.94504 23.96094 301 ft 22 kts 38°
2026-04-14 16:59 37.94626 23.96212 300 ft 21 kts 35°
2026-04-14 17:00 37.94747 23.96321 301 ft 22 kts 37°
2026-04-14 17:00 37.94873 23.96441 303 ft 23 kts 37°
2026-04-14 17:00 37.95006 23.96566 303 ft 24 kts 37°
2026-04-14 17:00 37.95145 23.96698 303 ft 26 kts 37°
2026-04-14 17:01 37.95290 23.96838 304 ft 27 kts 37°
2026-04-14 17:01 37.95383 23.96937 303 ft 15 kts 59°
2026-04-14 17:01 37.95356 23.97015 305 ft 6 kts 169°
2026-04-14 17:01 37.95354 23.97015 306 ft 0 kts 172°
2026-04-14 17:02 37.95331 23.97019 308 ft 9 kts 172°
2026-04-14 17:03 37.95265 23.97030 309 ft 10 kts 172°
2026-04-14 17:03 37.95190 23.97021 310 ft 8 kts 216°
2026-04-14 17:03 37.95179 23.97011 311 ft 1 kts 216°
2026-04-14 17:03 37.95178 23.97011 311 ft 0 kts 216°
2026-04-14 17:04 37.95166 23.96999 312 ft 11 kts 216°
2026-04-14 17:04 37.94903 23.96751 307 ft 81 kts 217°
2026-04-14 17:04 37.94291 23.96170 287 ft 135 kts 217°
2026-04-14 17:05 37.93427 23.95347 395 ft 165 kts 216°
2026-04-14 17:05 37.92471 23.94593 1029 ft 163 kts 208°
2026-04-14 17:05 37.91486 23.93923 1681 ft 163 kts 208°
2026-04-14 17:05 37.90475 23.93250 2210 ft 169 kts 210°
2026-04-14 17:06 37.89365 23.92505 2470 ft 191 kts 210°
2026-04-14 17:06 37.88120 23.91664 2721 ft 213 kts 210°
2026-04-14 17:06 37.86738 23.90724 3040 ft 236 kts 210°
2026-04-14 17:06 37.85271 23.89725 3800 ft 241 kts 211°
2026-04-14 17:07 37.83795 23.88671 4572 ft 249 kts 218°
2026-04-14 17:07 37.82666 23.87007 5276 ft 256 kts 244°
2026-04-14 17:07 37.82288 23.84800 6147 ft 261 kts 271°
2026-04-14 17:07 37.82664 23.82532 7025 ft 265 kts 282°
2026-04-14 17:08 37.83151 23.80278 7878 ft 267 kts 281°
2026-04-14 17:08 37.83645 23.78002 8702 ft 270 kts 281°
2026-04-14 17:08 37.84143 23.75695 9520 ft 273 kts 280°
2026-04-14 17:08 37.84643 23.73365 10311 ft 276 kts 280°
2026-04-14 17:09 37.85155 23.70948 10674 ft 295 kts 280°
2026-04-14 17:09 37.85702 23.68338 10841 ft 318 kts 281°
2026-04-14 17:09 37.86279 23.65573 10997 ft 339 kts 281°
2026-04-14 17:09 37.86893 23.62649 11467 ft 348 kts 281°
2026-04-14 17:10 37.87525 23.59668 12058 ft 352 kts 282°
2026-04-14 17:10 37.88166 23.56651 12679 ft 356 kts 282°
2026-04-14 17:10 37.88813 23.53612 13301 ft 360 kts 282°
2026-04-14 17:10 37.89471 23.50530 13912 ft 364 kts 282°
2026-04-14 17:11 37.90131 23.47409 14440 ft 368 kts 282°
2026-04-14 17:11 37.90792 23.44261 14972 ft 372 kts 282°
2026-04-14 17:11 37.91456 23.41081 15505 ft 376 kts 282°
2026-04-14 17:11 37.92128 23.37855 16030 ft 379 kts 282°
2026-04-14 17:12 37.92808 23.34603 16540 ft 383 kts 282°
2026-04-14 17:12 37.93493 23.31331 17054 ft 387 kts 282°
2026-04-14 17:12 37.94183 23.28026 17562 ft 390 kts 282°
2026-04-14 17:12 37.94870 23.24719 18071 ft 394 kts 282°
2026-04-14 17:13 37.95569 23.21342 18568 ft 398 kts 282°
2026-04-14 17:13 37.96273 23.17937 19055 ft 401 kts 282°
2026-04-14 17:13 37.96980 23.14512 19581 ft 402 kts 282°
2026-04-14 17:13 37.97687 23.11083 20106 ft 403 kts 282°
2026-04-14 17:14 37.98396 23.07640 20585 ft 406 kts 282°
2026-04-14 17:14 37.99115 23.04160 21054 ft 409 kts 282°
2026-04-14 17:14 37.99838 23.00666 21532 ft 410 kts 282°
2026-04-14 17:14 38.00559 22.97159 21998 ft 412 kts 282°
2026-04-14 17:15 38.01282 22.93628 22473 ft 414 kts 282°
2026-04-14 17:15 38.02023 22.90085 22936 ft 417 kts 285°
2026-04-14 17:15 38.03250 22.86734 23359 ft 424 kts 301°
2026-04-14 17:15 38.05098 22.83790 23773 ft 429 kts 307°
2026-04-14 17:16 38.07037 22.80901 24081 ft 430 kts 307°
2026-04-14 17:16 38.08992 22.78012 24185 ft 433 kts 307°
2026-04-14 17:16 38.10979 22.75081 24255 ft 442 kts 307°
2026-04-14 17:16 38.12994 22.72110 24555 ft 444 kts 307°
2026-04-14 17:17 38.15013 22.69130 24935 ft 445 kts 307°
2026-04-14 17:17 38.17028 22.66140 25306 ft 445 kts 307°
2026-04-14 17:17 38.19009 22.63185 25776 ft 443 kts 306°
2026-04-14 17:17 38.21010 22.60190 26095 ft 446 kts 306°
2026-04-14 17:18 38.23023 22.57170 26174 ft 448 kts 306°
2026-04-14 17:18 38.25040 22.54142 26194 ft 449 kts 306°
2026-04-14 17:18 38.27062 22.51111 26183 ft 449 kts 306°
2026-04-14 17:18 38.29081 22.48085 26187 ft 449 kts 306°
2026-04-14 17:19 38.31102 22.45057 26193 ft 449 kts 305°
2026-04-14 17:19 38.33130 22.42015 26185 ft 451 kts 305°
2026-04-14 17:19 38.35163 22.38961 26184 ft 452 kts 305°
2026-04-14 17:19 38.37203 22.35900 26186 ft 453 kts 305°
2026-04-14 17:20 38.39242 22.32840 26185 ft 452 kts 305°
2026-04-14 17:20 38.41272 22.29782 26181 ft 452 kts 305°
2026-04-14 17:20 38.43305 22.26716 26182 ft 452 kts 305°
2026-04-14 17:20 38.45343 22.23637 26184 ft 453 kts 305°
2026-04-14 17:21 38.47348 22.20607 26184 ft 453 kts 305°
2026-04-14 17:21 38.49380 22.17536 26178 ft 452 kts 305°
2026-04-14 17:21 38.51412 22.14463 26179 ft 453 kts 305°
2026-04-14 17:21 38.53442 22.11394 26196 ft 453 kts 305°
2026-04-14 17:22 38.55472 22.08311 26193 ft 453 kts 305°
2026-04-14 17:22 38.57501 22.05223 26180 ft 453 kts 305°
2026-04-14 17:22 38.59525 22.02140 26179 ft 452 kts 305°
2026-04-14 17:22 38.61550 21.99059 26179 ft 452 kts 305°
2026-04-14 17:23 38.63576 21.95978 26183 ft 452 kts 305°
2026-04-14 17:23 38.65603 21.92894 26170 ft 452 kts 305°
2026-04-14 17:23 38.67596 21.89854 26169 ft 452 kts 304°
2026-04-14 17:23 38.69640 21.86728 26169 ft 453 kts 304°
2026-04-14 17:24 38.71632 21.83678 26165 ft 453 kts 304°
2026-04-14 17:24 38.73656 21.80578 26165 ft 453 kts 305°
2026-04-14 17:24 38.75681 21.77481 26159 ft 452 kts 305°
2026-04-14 17:24 38.77704 21.74387 26156 ft 453 kts 305°
2026-04-14 17:25 38.79723 21.71297 26176 ft 452 kts 305°
2026-04-14 17:25 38.81732 21.68215 26185 ft 450 kts 305°
2026-04-14 17:25 38.83742 21.65126 26188 ft 449 kts 305°
2026-04-14 17:25 38.85740 21.62053 26190 ft 447 kts 306°
2026-04-14 17:26 38.87731 21.58984 25947 ft 451 kts 306°
2026-04-14 17:26 38.89745 21.55874 25337 ft 454 kts 306°
2026-04-14 17:26 38.91740 21.52801 24640 ft 438 kts 306°
2026-04-14 17:26 38.93665 21.49842 23969 ft 422 kts 307°
2026-04-14 17:27 38.95491 21.47029 23245 ft 408 kts 307°
2026-04-14 17:27 38.97285 21.44253 22398 ft 399 kts 307°
2026-04-14 17:27 38.99059 21.41498 21535 ft 390 kts 307°
2026-04-14 17:27 39.00748 21.38872 20728 ft 382 kts 307°
2026-04-14 17:28 39.02428 21.36259 19953 ft 374 kts 307°
2026-04-14 17:28 39.04074 21.33702 19194 ft 370 kts 307°
2026-04-14 17:28 39.05712 21.31161 18441 ft 366 kts 307°
2026-04-14 17:28 39.07332 21.28648 17594 ft 363 kts 307°
2026-04-14 17:29 39.08940 21.26151 16751 ft 360 kts 307°
2026-04-14 17:29 39.10528 21.23678 15950 ft 356 kts 307°
2026-04-14 17:29 39.12100 21.21228 15163 ft 353 kts 307°
2026-04-14 17:29 39.13654 21.18803 14398 ft 350 kts 307°
2026-04-14 17:30 39.15199 21.16392 13602 ft 348 kts 307°
2026-04-14 17:30 39.16725 21.14010 13097 ft 339 kts 307°
2026-04-14 17:30 39.18229 21.11655 12774 ft 341 kts 306°
2026-04-14 17:30 39.19736 21.09295 12450 ft 340 kts 307°
2026-04-14 17:31 39.21233 21.06948 12118 ft 338 kts 307°
2026-04-14 17:31 39.22730 21.04600 11795 ft 337 kts 307°
2026-04-14 17:31 39.24198 21.02298 11474 ft 336 kts 307°
2026-04-14 17:31 39.25698 20.99944 11135 ft 335 kts 307°
2026-04-14 17:32 39.27151 20.97658 10820 ft 333 kts 307°
2026-04-14 17:32 39.28618 20.95348 10532 ft 331 kts 307°
2026-04-14 17:32 39.30081 20.93047 10402 ft 323 kts 307°
2026-04-14 17:32 39.31668 20.91072 10147 ft 321 kts 324°
2026-04-14 17:33 39.33658 20.89729 9602 ft 330 kts 342°
2026-04-14 17:33 39.35902 20.89160 9143 ft 324 kts 352°
2026-04-14 17:33 39.38143 20.88717 8279 ft 328 kts 352°
2026-04-14 17:34 39.42554 20.87914 7690 ft 313 kts
2026-04-14 17:34 39.44650 20.88382 7432 ft 304 kts 22°
2026-04-14 17:34 39.46541 20.89598 6986 ft 302 kts 33°
2026-04-14 17:34 39.48346 20.90903 6571 ft 292 kts 32°
2026-04-14 17:35 39.50203 20.91871 6140 ft 286 kts 14°
2026-04-14 17:35 39.52133 20.92339 5712 ft 278 kts 11°
2026-04-14 17:35 39.54015 20.92767 5294 ft 271 kts
2026-04-14 17:35 39.55866 20.92822 4913 ft 261 kts
2026-04-14 17:36 39.57623 20.92793 4549 ft 244 kts
2026-04-14 17:36 39.59245 20.92504 4226 ft 230 kts 341°
2026-04-14 17:36 39.60588 20.91520 3913 ft 214 kts 321°
2026-04-14 17:36 39.61711 20.90367 3550 ft 198 kts 320°
2026-04-14 17:37 39.62755 20.89269 3112 ft 188 kts 321°
2026-04-14 17:37 39.63717 20.88274 2996 ft 165 kts 322°
2026-04-14 17:37 39.64615 20.87435 2866 ft 156 kts 324°
2026-04-14 17:37 39.65461 20.86587 2600 ft 151 kts 321°
2026-04-14 17:38 39.66262 20.85730 2315 ft 149 kts 321°
2026-04-14 17:38 39.67080 20.84882 2047 ft 151 kts 322°
2026-04-14 17:38 39.67924 20.84034 1846 ft 155 kts 322°
2026-04-14 17:38 39.68783 20.83161 1662 ft 154 kts 323°
2026-04-14 17:39 39.69332 20.82600 1569 ft 144 kts 322°
2026-04-14 17:39 39.70018 20.81905 1567 ft 52 kts 321°
2026-04-14 17:39 39.70145 20.81765 1564 ft 7 kts
2026-04-14 17:39 39.70134 20.81790 1564 ft 6 kts 143°
2026-04-14 17:40 39.70089 20.81832 1565 ft 17 kts 145°
2026-04-14 17:40 39.69998 20.81919 1567 ft 16 kts 140°
2026-04-14 17:40 39.69904 20.81945 1567 ft 14 kts 210°
2026-04-14 17:40 39.69817 20.81867 1565 ft 17 kts 187°
2026-04-14 17:41 39.69723 20.81938 1565 ft 16 kts 141°
2026-04-14 17:41 39.69637 20.82027 1565 ft 16 kts 141°
2026-04-14 17:41 39.69549 20.82119 1565 ft 17 kts 141°
2026-04-14 17:41 39.69456 20.82216 1565 ft 17 kts 140°
2026-04-14 17:42 39.69423 20.82332 1565 ft 13 kts 137°
2026-04-14 17:42 39.69354 20.82405 1565 ft 13 kts 141°
2026-04-14 17:42 39.69297 20.82378 1565 ft 9 kts 249°
2026-04-14 17:42 39.69310 20.82354 1565 ft 2 kts 315°